Regional Weather Roundup
Issued by NWS

Home | Current Version | Previous Version | Graphics & Text | Print | Product List | Glossary On
Versions: 1 2 3 4 5 6 7 8 9 10 11 12 13 14 15 16 17 18 19 20 21 22 23 24 25 26 27 28 29 30 31 32 33 34 35 36 37 38 39 40 41 42 43 44 45 46 47 48 49 50
000
ASUS43 KOAX 201910
RWRNE

WEATHER ROUNDUP FOR NEBRASKA
NATIONAL WEATHER SERVICE OMAHA NE
200 PM CDT MON APR 20 2015

NOTES: SATELLITE DATA IS BEING USED TO AUGMENT CLOUD COVER ABOVE
       12000 FEET.
       "FAIR" INDICATES FEW OR NO CLOUDS BELOW 12,000 FEET WITH NO
       SIGNIFICANT WEATHER AND/OR OBSTRUCTIONS TO VISIBILITY.

  * THESE STATIONS DO NOT REPORT WEATHER SUCH AS RAIN...SNOW OR FOG.

NEZ001>004-019>022-054>056-202000-
NEBRASKA PANHANDLE

CITY           SKY/WX    TMP DP  RH WIND       PRES   REMARKS
SCOTTSBLUFF    PTSUNNY   52  28  39 NW18G28   29.93F
ALLIANCE       PTSUNNY   52  24  33 NW21G26   29.90F
CHADRON        MOSUNNY   51  22  31 NW21G32   29.91F
KIMBALL        PTSUNNY   48  24  39 NW17G26   29.92F
SIDNEY         PTSUNNY   51  27  39 NW18G25   29.93F
$$

NEZ057>060-069>072-079>082-202000-
SOUTHWEST NEBRASKA

CITY           SKY/WX    TMP DP  RH WIND       PRES   REMARKS
NORTH PLATTE   PTSUNNY   53  22  29 NW20G32   29.91F
IMPERIAL       PTSUNNY   53  24  32 NW21      29.93F
LEXINGTON      PTSUNNY   55  26  32 NW21G31   29.90F
MCCOOK         PTSUNNY   56  22  26 NW21      29.92F
OGALLALA       PTSUNNY   55  25  32 NW16G26   29.91F
$$

NEZ005>010-023>029-035>040-094-202000-
NORTH CENTRAL NEBRASKA

CITY           SKY/WX    TMP DP  RH WIND       PRES   REMARKS
VALENTINE      CLOUDY    50  19  29 NW21G31   29.85F
AINSWORTH      CLOUDY    50  20  30 NW18G26   29.84F
BROKEN BOW     PTSUNNY   55  20  25 NW25G31   29.87F
O`NEILL        PTSUNNY   53  19  25 NW30G40   29.81F
ORD            PTSUNNY   53  21  28 NW26G37   29.84F
THEDFORD       CLOUDY    53  23  31 NW23G31   29.89S
$$

NEZ041-046>049-061>064-073>077-083>087-202000-
SOUTH CENTRAL NEBRASKA

CITY           SKY/WX    TMP DP  RH WIND       PRES   REMARKS
GRAND ISLAND   PTSUNNY   55  22  27 NW24G39   29.87F
AURORA         MOSUNNY   56  22  26 NW24G33   29.86F
HASTINGS       PTSUNNY   55  25  31 NW22G29   29.87F
HEBRON         PTSUNNY   57  18  22 NW22G28   29.88F
HOLDREGE       PTSUNNY   54  22  29 NW21G29   29.90F
KEARNEY *      PTSUNNY   55  21  26 NW20G26   29.89F
YORK           MOSUNNY   54  25  32 NW31G37   29.83F
$$

NEZ011>018-030>034-042>045-202000-
NORTHEAST NEBRASKA

CITY           SKY/WX    TMP DP  RH WIND       PRES   REMARKS
ALBION         MOSUNNY   54  20  27 NW26G40   29.81F
BLAIR          SUNNY     53  19  25 NW21G32   29.77F
COLUMBUS *     MOSUNNY   55  23  28 NW29G38   29.82F
FREMONT        SUNNY     57  22  25 W24G39    29.79F
TEKAMAH        SUNNY     56  25  30 W32G45    29.75F
WAYNE          SUNNY     55  13  19 NW30G44   29.75F
$$

NEZ050>053-065>068-078-088>093-202000-
SOUTHEAST NEBRASKA

CITY           SKY/WX    TMP DP  RH WIND       PRES   REMARKS
LINCOLN        MOSUNNY   56  21  25 NW25G32   29.83F
OMAHA EPPLEY   MOSUNNY   56  21  25 W25G38    29.77F
BEATRICE       MOSUNNY   56  27  32 NW24G35   29.85F
FALLS CITY     SUNNY     55  28  35 NW23G33   29.83F
NEBRASKA CITY  MOSUNNY   55  17  22 NW28G36   29.81F
PLATTSMOUTH    MOSUNNY   54  17  23 W28G39    29.80F
$$

NEZ044-045-051>053-067-202000-
OMAHA AREA

CITY           SKY/WX    TMP DP  RH WIND       PRES   REMARKS
OMAHA EPPLEY   MOSUNNY   56  21  25 W25G38    29.77F
BLAIR          SUNNY     53  19  25 NW21G32   29.77F
FREMONT        SUNNY     57  22  25 W24G39    29.79F
MILLARD        MOSUNNY   55  23  28 W23G37    29.78F
OFFUTT AFB     SUNNY     56  23  28 W22G35    29.78F
PLATTSMOUTH    MOSUNNY   54  17  23 W28G39    29.80F
WAHOO          FAIR      56  18  22 NW23G37   29.80F
$$


USA.gov is the U.S. government's official web portal to all federal, state and local government web resources and services.